Flag for India Weather past 2 weeks in Sultanpur, Uttar Pradesh, India

Now
81 °F

Broken clouds.


Feels Like: 82 °F
Forecast: 66 / 93 °F
Wind: 5 mph from Northeast

Location: Varanasi / Babatpur

Current Time: Feb 27, 2015 at 7:03:43 PM

Latest Report: Feb 27, 2015 at 5:00 PM


Visibility: 2 mi

Pressure: 29.80 "Hg

Humidity: 58%

Dew point: 64 °F

Location of SultanpurLocation

Historic Weather in Sultanpur — Graph

°F

Sultanpur temperature yesterday

Maximum temperature yesterday: 84 °F (at 2:00 PM)
Minimum temperature yesterday: 66 °F (at 5:00 AM)
Average temperature yesterday: 73 °F

Past Weeks' High & Low Weather Summary

 TemperatureHumidityPressure
High88 °F (Feb 21, 3:00 PM)100% (Feb 17, 6:00 AM)30.04 "Hg (Feb 17, 6:00 AM)
Low54 °F (Feb 13, 6:00 AM)30% (Feb 14, 3:00 PM)29.71 "Hg (Feb 26, 4:00 AM)
Average72 °F72%29.89 "Hg
* Reported Feb 12 5:00 PM — Feb 27 5:00 PM, Sultanpur, Weather by CustomWeather, © 2015

Note: Actual official high and low records may vary slightly from our data, if they occured in-between our weather recording intervals... More about our weather records

Advertising

Sultanpur weather history for previous 24 hours

 ConditionsComfort  
Time TempWeatherWind HumidityBarometerVisibility
5:00 PM
Fri, Feb 27
81 °FBroken clouds.5 mph58%29.80 "Hg2 mi
4:00 PM84 °FScattered clouds.7 mph51%29.80 "Hg3 mi
3:00 PM84 °FScattered clouds.8 mph51%29.80 "Hg3 mi
2:00 PM82 °FScattered clouds.8 mph55%29.83 "Hg3 mi
12:00 PM81 °FScattered clouds.7 mph62%29.89 "Hg2 mi
11:00 AM77 °FScattered clouds.6 mph69%29.89 "Hg2 mi
10:00 AM73 °FHaze.3 mph78%29.89 "Hg2 mi
9:00 AM70 °FScattered clouds.3 mph83%29.89 "Hg1 mi
8:00 AM64 °FScattered clouds.2 mph94%29.89 "Hg1 mi
7:00 AM64 °FBroken clouds.1 mph94%29.86 "Hg2 mi
6:00 AM64 °FLight rain. Partly cloudy.5 mph94%29.86 "Hg2 mi
5:00 AM63 °FThunderstorms. Partly cloudy.1 mph100%29.83 "Hg2 mi
12:00 AM66 °FHaze.8 mph88%29.86 "Hg2 mi
11:00 PM
Thu, Feb 26
66 °FHaze.No wind88%29.83 "Hg2 mi
10:00 PM68 °FHaze.2 mph83%29.83 "Hg2 mi
9:00 PM68 °FHaze.2 mph83%29.83 "Hg2 mi
8:00 PM70 °FHaze.7 mph78%29.80 "Hg2 mi
7:00 PM72 °FHaze.9 mph73%29.80 "Hg2 mi
Weather by CustomWeather, © 2015

See weather overviewHow to use our weather pages